FW8528 Weather Reports


Display with metric or nautical units.
time (UTC)temp
F
wind
direction
speed
MPH
gust
MPH
rain 1hr
in
rain 24hr
in
rain mn
in
humidity
%
barometer
mb
20260903162211 54 169 1.0 2.0 0.00 0.47 0.47 99 1008.2
20260903161706 54 240 0.0 0.0 0.00 0.47 0.47 99 1008.2
20260903161201 54 205 2.0 3.0 0.00 0.47 0.47 99 1008.6
20260903160657 54 233 0.0 1.0 0.00 0.47 0.47 99 1008.6
20260903160151 54 222 1.0 1.0 0.00 0.47 0.47 99 1008.6
20260903155649 54 254 0.0 0.0 0.00 0.47 0.47 99 1008.2
20260903155145 54 242 0.0 0.0 0.00 0.47 0.47 99 1008.6
20260903154641 54 241 0.0 0.0 0.00 0.47 0.47 99 1008.2
20260903154137 54 243 0.0 0.0 0.00 0.47 0.47 99 1008.2
20260903153632 54 242 0.0 0.0 0.00 0.47 0.47 99 1008.2
20260903153128 53 242 0.0 0.0 0.00 0.47 0.47 99 1008.2
20260903152624 53 242 0.0 0.0 0.00 0.47 0.47 99 1008.2
20260903152120 53 237 0.0 0.0 0.00 0.47 0.47 99 1008.2
20260903151619 53 258 0.0 0.0 0.00 0.47 0.47 99 1007.9
20260903151115 53 251 0.0 0.0 0.00 0.47 0.47 99 1007.9
20260903150614 53 251 0.0 0.0 0.00 0.47 0.47 99 1008.2
20260903150109 53 253 0.0 0.0 0.00 0.47 0.47 99 1007.9
20260903145608 53 247 0.0 0.0 0.00 0.47 0.47 99 1007.9
20260903145104 53 247 0.0 0.0 0.00 0.47 0.47 99 1008.2
20260903144603 53 246 0.0 0.0 0.00 0.47 0.47 99 1007.9
20260903144059 53 231 0.0 0.0 0.00 0.47 0.47 99 1007.9
20260903143555 53 232 0.0 0.0 0.00 0.47 0.47 99 1007.5
20260903143050 53 225 0.0 0.0 0.00 0.47 0.47 99 1007.9
20260903142545 53 231 0.0 0.0 0.00 0.47 0.47 99 1007.9
20260903142043 53 180 1.0 1.0 0.00 0.47 0.47 99 1007.9
20260903141538 53 234 0.0 1.0 0.00 0.47 0.47 99 1007.9
20260903141033 53 241 0.0 0.0 0.00 0.47 0.47 99 1007.9
20260903140529 52 205 1.0 1.0 0.00 0.47 0.47 99 1007.5
20260903140024 52 207 1.0 1.0 0.00 0.47 0.47 99 1007.5
20260903135519 52 172 1.0 1.0 0.00 0.47 0.47 99 1007.5
20260903135019 52 235 0.0 0.0 0.00 0.47 0.47 99 1007.5
20260903134519 52 251 0.0 0.0 0.00 0.47 0.47 99 1007.5
20260903134015 52 226 1.0 1.0 0.00 0.47 0.47 99 1007.5
20260903133512 52 235 0.0 0.0 0.00 0.47 0.47 99 1007.5
20260903133008 52 230 0.0 0.0 0.05 0.47 0.47 99 1007.2
20260903132502 52 256 0.0 0.0 0.12 0.47 0.47 99 1007.2
20260903131957 52 193 1.0 1.0 0.14 0.46 0.46 99 1007.5
20260903131452 52 231 0.0 1.0 0.12 0.45 0.45 99 1006.8
20260903130950 51 224 0.0 1.0 0.12 0.44 0.44 99 1007.2
20260903130446 52 242 0.0 0.0 0.19 0.43 0.43 99 1007.2
20260903125945 52 244 0.0 0.0 0.07 0.41 0.41 99 1007.2
20260903125439 51 247 0.0 0.0 0.00 0.40 0.40 99 1006.8
20260903124939 52 247 0.0 0.0 0.00 0.40 0.40 99 1007.2
20260903124434 52 255 0.0 0.0 0.00 0.40 0.40 99 1007.2
20260903123933 52 254 0.0 0.0 0.00 0.40 0.40 99 1006.8
20260903123428 52 254 0.0 0.0 0.05 0.40 0.40 99 1006.8
20260903122926 52 246 0.0 0.0 0.05 0.40 0.40 99 1006.8
20260903122421 52 232 0.0 0.0 0.07 0.39 0.39 99 1006.8
20260903121920 52 236 0.0 0.0 0.05 0.38 0.38 99 1006.8
20260903121415 52 260 0.0 0.0 0.00 0.37 0.37 99 1007.2
20260903120911 52 248 0.0 0.0 0.00 0.37 0.37 99 1007.2
20260903120410 52 237 0.0 0.0 0.00 0.37 0.37 99 1006.8
20260903115909 52 189 1.0 1.0 0.00 0.37 0.37 99 1006.8
20260903115403 52 256 0.0 0.0 0.00 0.37 0.37 99 1006.8
20260903114857 52 142 1.0 1.0 0.00 0.37 0.37 99 1006.8
20260903114353 52 231 0.0 0.0 0.00 0.37 0.37 99 1006.8
20260903113849 52 260 0.0 0.0 0.07 0.37 0.37 99 1006.8
20260903113344 52 227 0.0 0.0 0.07 0.37 0.37 99 1006.8
20260903112840 52 210 0.0 1.0 0.00 0.36 0.36 99 1006.8
20260903112336 52 249 0.0 0.0 0.00 0.36 0.36 99 1006.4
20260903111835 52 222 0.0 1.0 0.05 0.36 0.36 99 1006.8
20260903111334 52 223 0.0 1.0 0.05 0.36 0.36 99 1006.8
20260903110831 52 148 0.0 0.0 0.00 0.35 0.35 99 1006.4
20260903110321 52 242 0.0 0.0 0.00 0.35 0.35 99 1006.8
20260903105821 52 232 0.0 0.0 0.07 0.35 0.35 99 1006.8
20260903105315 52 240 0.0 0.0 0.07 0.35 0.35 99 1006.8
20260903104815 52 215 0.0 1.0 0.00 0.34 0.34 99 1006.8
20260903104310 52 194 3.0 3.0 0.00 0.34 0.34 99 1006.8
20260903103806 52 208 1.0 1.0 0.05 0.34 0.34 99 1006.8
20260903103302 52 209 0.0 0.0 0.12 0.34 0.34 99 1006.8
20260903102758 52 192 1.0 1.0 0.14 0.33 0.33 99 1006.8
20260903102252 52 199 1.0 1.0 0.12 0.32 0.32 99 1006.8
20260903101750 52 227 1.0 1.0 0.17 0.31 0.31 99 1006.4
20260903101247 52 301 0.0 0.0 0.24 0.30 0.30 99 1006.4
20260903100742 52 253 0.0 0.0 0.19 0.28 0.28 99 1006.4
20260903100242 52 263 0.0 0.0 0.07 0.26 0.26 99 1006.8
20260903095739 52 191 1.0 1.0 0.05 0.25 0.25 99 1006.8
20260903095234 52 253 0.0 0.0 0.35 0.25 0.25 99 1006.8
20260903094729 52 225 0.0 0.0 0.31 0.23 0.23 99 1006.8
20260903094224 52 217 0.0 1.0 0.07 0.19 0.19 99 1006.4
20260903093719 52 223 0.0 1.0 0.05 0.18 0.18 99 1006.4
20260903093215 52 216 1.0 1.0 0.19 0.17 0.17 99 1006.8
20260903092714 52 218 0.0 1.0 0.24 0.16 0.16 99 1006.4
20260903092209 52 231 0.0 0.0 0.17 0.14 0.14 99 1006.8
20260903091708 52 261 0.0 0.0 0.24 0.12 0.12 99 1006.8
20260903091203 53 246 0.0 0.0 0.17 0.10 0.10 99 1006.8
20260903090658 52 237 0.0 0.0 0.19 0.08 0.08 99 1006.8
20260903090156 52 272 0.0 0.0 0.19 0.07 0.07 99 1006.8
20260903085655 53 221 0.0 1.0 0.12 0.05 0.05 99 1006.8
20260903085151 53 224 0.0 0.0 0.19 0.04 0.04 99 1006.4
20260903084649 53 253 0.0 0.0 0.17 0.03 0.03 99 1006.8
20260903084143 53 236 0.0 0.0 0.05 0.01 0.01 99 1006.4
20260903083640 53 217 0.0 0.0 0.00 0.00 0.00 99 1006.8
20260903083139 53 249 0.0 0.0 0.00 0.00 0.00 99 1006.8
20260903082633 53 142 1.0 2.0 0.00 0.00 0.00 99 1006.4
20260903082130 53 242 0.0 0.0 0.00 0.00 0.00 99 1006.4
20260903081624 53 249 0.0 0.0 0.00 0.00 0.00 99 1006.4
20260903081119 53 231 0.0 0.0 0.00 0.00 0.00 99 1006.8
20260903080616 53 231 0.0 0.0 0.00 0.00 0.00 99 1006.1
20260903080108 53 261 0.0 0.0 0.00 0.00 0.00 99 1006.4
20260903075607 53 245 0.0 0.0 0.00 0.00 0.00 99 1006.4
20260903075102 53 248 0.0 0.0 0.00 0.00 0.00 99 1006.4
20260903074601 53 232 0.0 0.0 0.00 0.00 0.00 99 1006.4
20260903074056 53 231 0.0 0.0 0.00 0.00 0.00 99 1006.4
20260903073551 53 223 0.0 0.0 0.00 0.00 0.00 99 1006.4
20260903073047 53 223 0.0 0.0 0.00 0.00 0.00 99 1006.1
20260903072543 53 228 0.0 0.0 0.00 0.00 0.00 99 1006.4
20260903072039 53 263 0.0 0.0 0.00 0.00 0.00 99 1006.1
20260903071535 53 277 0.0 0.0 0.00 0.00 0.00 99 1006.1
20260903071030 53 233 0.0 0.0 0.00 0.00 0.00 99 1006.1
20260903070530 53 208 1.0 1.0 0.07 0.00 0.00 99 1006.1
20260903070026 53 249 0.0 0.0 0.07 0.00 0.00 99 1006.4
20260903065520 53 278 0.0 0.0 0.00 1.14 1.14 99 1006.1
20260903065019 53 282 0.0 0.0 0.00 1.14 1.14 99 1006.1
20260903064519 53 283 0.0 0.0 0.00 1.14 1.14 99 1006.4
20260903064015 53 246 0.0 0.0 0.24 1.14 1.14 99 1006.8
20260903063510 53 258 0.0 0.0 0.47 1.14 1.14 99 1006.4
20260903063005 53 252 0.0 0.0 0.28 1.09 1.09 99 1006.4
20260903062500 53 238 0.0 0.0 0.05 1.05 1.05 99 1006.4
20260903061955 53 258 0.0 0.0 0.00 1.04 1.04 99 1006.4
20260903061450 53 231 0.0 0.0 0.00 1.04 1.04 99 1006.4
20260903060946 53 285 0.0 0.0 0.00 1.04 1.04 99 1006.4
20260903060440 53 294 0.0 0.0 0.00 1.04 1.04 99 1006.4
20260903055939 54 276 0.0 0.0 0.00 1.04 1.04 99 1006.4
20260903055437 54 201 1.0 2.0 0.00 1.04 1.04 99 1006.4
20260903054936 54 280 0.0 0.0 0.00 1.04 1.04 99 1006.4
20260903054431 54 278 0.0 0.0 0.00 1.04 1.04 99 1006.4
20260903053927 54 275 0.0 0.0 0.07 1.04 1.04 99 1006.4
20260903053427 54 309 2.0 3.0 0.12 1.04 1.04 99 1006.4
20260903052924 54 281 0.0 0.0 0.05 1.03 1.03 99 1006.1
20260903052419 54 208 0.0 0.0 0.00 1.02 1.02 99 1006.1
20260903051915 54 284 0.0 0.0 0.00 1.02 1.02 99 1006.4
20260903051410 54 204 1.0 1.0 0.00 1.02 1.02 99 1006.4
20260903050906 54 231 0.0 0.0 0.00 1.02 1.02 99 1006.4
20260903050404 54 266 0.0 0.0 0.07 1.02 1.02 99 1006.4
20260903045859 54 241 0.0 0.0 0.07 1.02 1.02 99 1006.4
20260903045355 54 240 0.0 0.0 0.00 1.01 1.01 99 1006.1
20260903044852 53 256 0.0 0.0 0.00 1.01 1.01 99 1006.4
20260903044352 53 239 0.0 0.0 0.00 1.01 1.01 99 1006.1
20260903043849 53 200 1.0 1.0 0.00 1.01 1.01 99 1006.1
20260903043343 53 261 0.0 0.0 0.00 1.01 1.01 99 1006.4
20260903042842 53 264 0.0 0.0 0.00 1.01 1.01 99 1006.1
20260903042337 53 255 0.0 0.0 0.00 1.01 1.01 99 1006.1
20260903041833 53 278 0.0 0.0 0.00 1.01 1.01 99 1006.1
20260903041329 53 302 0.0 1.0 0.00 1.01 1.01 99 1006.1
20260903040825 53 295 0.0 1.0 0.00 1.01 1.01 99 1006.1
20260903040323 53 333 2.0 2.0 0.00 1.01 1.01 99 1006.1
20260903035820 53 266 0.0 0.0 0.00 1.01 1.01 99 1006.1
20260903035315 52 274 0.0 0.0 0.00 1.01 1.01 99 1005.8
20260903034810 53 276 0.0 0.0 0.00 1.01 1.01 99 1005.8
20260903034305 53 279 0.0 0.0 0.00 1.01 1.01 99 1005.4
20260903033801 53 275 0.0 0.0 0.00 1.01 1.01 99 1005.8
20260903033256 53 278 0.0 0.0 0.00 1.01 1.01 99 1005.4
20260903032749 53 291 0.0 1.0 0.00 1.01 1.01 99 1005.4
20260903032246 53 277 0.0 0.0 0.00 1.01 1.01 99 1005.4
20260903031742 53 286 0.0 0.0 0.00 1.01 1.01 99 1005.1
20260903031241 53 267 0.0 0.0 0.00 1.01 1.01 99 1005.4
20260903030737 53 251 0.0 0.0 0.00 1.01 1.01 99 1005.1
20260903030232 53 278 0.0 0.0 0.00 1.01 1.01 99 1005.1
20260903025728 53 253 0.0 0.0 0.00 1.01 1.01 99 1005.4
20260903025223 53 278 0.0 1.0 0.00 1.01 1.01 99 1005.1
20260903024723 53 291 0.0 1.0 0.05 1.01 1.01 99 1005.1
20260903024222 53 257 0.0 0.0 0.05 1.01 1.01 99 1004.7
20260903023718 54 266 0.0 0.0 0.00 1.00 1.00 99 1005.1
20260903023214 54 242 0.0 1.0 0.00 1.00 1.00 99 1004.7
20260903022713 54 247 0.0 0.0 0.00 1.00 1.00 99 1004.7
20260903022213 54 267 0.0 0.0 0.00 1.00 1.00 99 1005.1
20260903021713 54 264 0.0 0.0 0.00 1.00 1.00 99 1004.7
20260903021208 54 292 1.0 1.0 0.07 1.00 1.00 99 1004.7
20260903020703 54 279 0.0 1.0 0.07 1.00 1.00 99 1004.4
20260903020203 54 280 0.0 1.0 0.00 0.99 0.99 99 1004.4
20260903015658 54 303 1.0 1.0 0.00 0.99 0.99 99 1004.4
20260903015153 54 268 0.0 0.0 0.00 0.99 0.99 99 1004.4
20260903014648 54 276 1.0 1.0 0.00 0.99 0.99 99 1004.4
20260903014147 54 263 0.0 0.0 0.00 0.99 0.99 99 1004.4
20260903013643 54 247 0.0 0.0 0.00 0.99 0.99 99 1004.4
20260903013142 54 283 0.0 0.0 0.00 0.99 0.99 99 1004.1
20260903012641 54 269 0.0 0.0 0.00 0.99 0.99 99 1004.1
20260903012140 55 267 0.0 0.0 0.00 0.99 0.99 99 1004.1
20260903011641 54 268 0.0 0.0 0.00 0.99 0.99 99 1004.1
20260903011140 55 294 0.0 0.0 0.05 0.99 0.99 99 1004.1
20260903010636 55 265 0.0 1.0 0.00 0.98 0.98 99 1004.1
20260903010135 55 270 0.0 1.0 0.00 0.98 0.98 99 1004.4
20260903005635 55 300 1.0 1.0 0.00 0.98 0.98 99 1004.1
20260903005131 55 274 0.0 0.0 0.00 0.98 0.98 99 1004.1
20260903004625 55 357 1.0 2.0 0.00 0.98 0.98 99 1003.7
20260903004120 55 259 2.0 2.0 0.00 0.98 0.98 99 1003.7
20260903003616 55 216 2.0 3.0 0.00 0.98 0.98 99 1004.1
20260903003111 56 231 1.0 1.0 0.00 0.98 0.98 99 1003.7
20260903002606 56 295 0.0 1.0 0.00 0.98 0.98 99 1004.1
20260903002100 55 187 0.0 1.0 0.00 0.98 0.98 99 1003.7
20260903001555 54 307 1.0 1.0 0.00 0.98 0.98 99 1004.1
20260903001055 55 274 1.0 2.0 0.00 0.98 0.98 99 1003.7
20260903000550 55 193 2.0 2.0 0.00 0.98 0.98 99 1003.7
20260903000044 55 294 0.0 0.0 0.00 0.98 0.98 99 1003.7
20260902235543 56 13 3.0 3.0 0.00 0.98 0.98 99 1003.4
20260902235039 56 116 1.0 2.0 0.00 0.98 0.98 99 1003.4
20260902234538 55 244 0.0 1.0 0.07 0.98 0.98 99 1003.4
20260902234037 55 311 1.0 1.0 0.07 0.98 0.98 99 1003.4
20260902233532 55 222 3.0 5.0 0.12 0.97 0.97 99 1003.4
20260902233027 55 245 0.0 1.0 0.24 0.97 0.97 99 1003.0
20260902232526 55 181 1.0 2.0 0.31 0.95 0.95 99 1003.0
20260902232020 55 208 1.0 2.0 0.31 0.93 0.93 99 1003.0
20260902231515 55 184 1.0 2.0 0.12 0.89 0.89 99 1003.0
20260902231010 55 279 0.0 1.0 0.00 0.87 0.87 99 1003.0
20260902230509 55 246 2.0 2.0 0.00 0.87 0.87 99 1003.4
20260902230009 55 175 5.0 6.0 0.00 0.87 0.87 99 1003.4
20260902225504 55 259 1.0 1.0 0.00 0.87 0.87 99 1003.4
20260902224958 55 247 0.0 0.0 0.00 0.87 0.87 99 1003.4
20260902224457 55 207 1.0 1.0 0.00 0.87 0.87 99 1003.0
20260902223954 55 137 1.0 2.0 0.00 0.87 0.87 99 1003.0
20260902223449 55 205 4.0 7.0 0.12 0.87 0.87 99 1003.0
20260902222948 55 174 2.0 3.0 0.31 0.87 0.87 99 1003.0
20260902222447 55 284 1.0 2.0 0.38 0.85 0.85 99 1003.0
20260902221947 55 304 1.0 2.0 0.28 0.81 0.81 99 1003.0
20260902221446 55 277 1.0 1.0 0.40 0.79 0.79 99 1003.4
20260902220942 55 214 0.0 1.0 0.43 0.75 0.75 99 1003.4
20260902220441 55 232 1.0 1.0 0.35 0.71 0.71 99 1003.4
20260902215936 55 260 0.0 0.0 0.40 0.68 0.68 99 1003.7
20260902215432 55 275 1.0 1.0 0.50 0.65 0.65 99 1003.7
20260902214928 55 274 0.0 0.0 0.54 0.61 0.61 99 1003.7
20260902214426 55 258 0.0 0.0 0.43 0.56 0.56 99 1003.7
20260902213921 55 141 2.0 3.0 0.43 0.52 0.52 99 1003.7
20260902213417 55 265 0.0 0.0 0.35 0.47 0.47 99 1003.7
20260902212915 55 267 0.0 0.0 0.35 0.44 0.44 99 1003.7
20260902212412 56 325 1.0 1.0 0.24 0.40 0.40 99 1004.1
20260902211908 56 323 1.0 1.0 0.24 0.38 0.38 99 1004.1
20260902211404 56 267 0.0 0.0 0.24 0.36 0.36 99 1004.1
20260902210859 56 292 0.0 0.0 0.24 0.34 0.34 99 1004.4
20260902210358 56 257 0.0 0.0 0.19 0.32 0.32 99 1004.7
20260902205857 57 253 0.0 0.0 0.12 0.30 0.30 99 1004.4
20260902205351 56 243 0.0 1.0 0.12 0.29 0.29 99 1004.4
20260902204848 57 5 2.0 2.0 0.12 0.28 0.28 99 1004.4
20260902204342 57 101 1.0 1.0 0.17 0.27 0.27 99 1004.1
20260902203838 57 263 0.0 0.0 0.19 0.26 0.26 99 1004.4
20260902203338 57 260 0.0 0.0 0.12 0.24 0.24 99 1004.1
20260902202832 58 268 0.0 0.0 0.19 0.23 0.23 99 1004.1
20260902202328 58 235 0.0 0.0 0.19 0.22 0.22 99 1004.4
20260902201825 58 192 0.0 1.0 0.12 0.20 0.20 99 1004.4
20260902201325 59 224 0.0 0.0 0.12 0.19 0.19 99 1004.7
20260902200820 59 251 0.0 0.0 0.12 0.18 0.18 99 1004.7
20260902200315 59 227 0.0 0.0 0.07 0.17 0.17 99 1004.7
20260902195810 59 223 0.0 1.0 0.05 0.16 0.16 99 1004.4
20260902195309 59 232 0.0 0.0 0.05 0.16 0.16 99 1004.4
20260902194804 59 238 0.0 0.0 0.00 0.15 0.15 99 1004.7
20260902194259 60 255 0.0 0.0 0.07 0.15 0.15 99 1004.7
20260902193754 60 255 0.0 0.0 0.07 0.15 0.15 99 1004.7
20260902193250 60 256 0.0 0.0 0.00 0.14 0.14 99 1004.4
20260902192749 59 234 0.0 0.0 0.05 0.14 0.14 99 1004.7
20260902192248 58 233 0.0 0.0 0.05 0.14 0.14 99 1004.7
20260902191747 59 230 1.0 1.0 0.00 0.13 0.13 99 1004.7
20260902191243 59 264 0.0 1.0 0.00 0.13 0.13 99 1004.7
20260902190738 59 241 0.0 0.0 0.00 0.13 0.13 99 1004.4
20260902190237 59 263 0.0 0.0 0.00 0.13 0.13 99 1004.7
20260902185733 59 263 0.0 1.0 0.07 0.13 0.13 99 1005.1
20260902185229 59 243 0.0 0.0 0.07 0.13 0.13 99 1004.7
20260902184724 59 279 0.0 0.0 0.00 0.12 0.12 99 1005.1
20260902184220 58 266 0.0 0.0 0.00 0.12 0.12 99 1004.7
20260902183716 58 240 0.0 0.0 0.00 0.12 0.12 99 1005.1
20260902183212 59 260 0.0 0.0 0.00 0.12 0.12 99 1005.1
20260902182708 59 252 0.0 0.0 0.00 0.12 0.12 99 1005.1
20260902182204 59 260 0.0 0.0 0.00 0.12 0.12 99 1005.1
20260902181659 58 265 0.0 0.0 0.05 0.12 0.12 99 1005.4
20260902181154 57 264 0.0 0.0 0.05 0.12 0.12 99 1005.4
20260902180654 57 264 0.0 0.0 0.00 0.11 0.11 99 1005.1
20260902180150 57 265 0.0 0.0 0.00 0.11 0.11 99 1005.4
20260902175649 57 263 0.0 0.0 0.07 0.11 0.11 99 1005.1
20260902175145 56 263 0.0 0.0 0.07 0.11 0.11 99 1005.1
20260902174641 56 260 0.0 0.0 0.00 0.10 0.10 99 1005.1
20260902174137 56 272 0.0 0.0 0.07 0.10 0.10 99 1005.1
20260902173632 56 272 0.0 0.0 0.07 0.10 0.10 99 1005.4
20260902173127 56 272 0.0 0.0 0.00 0.09 0.09 99 1005.1
20260902172621 56 272 0.0 0.0 0.05 0.09 0.09 99 1005.4
20260902172121 56 272 0.0 0.0 0.00 0.08 0.08 99 1005.8
20260902171616 56 272 0.0 0.0 0.00 0.08 0.08 99 1005.4
20260902171112 56 272 0.0 0.0 0.00 0.08 0.08 99 1005.8
20260902170608 56 272 0.0 0.0 0.00 0.08 0.08 99 1005.8
20260902170103 56 272 0.0 0.0 0.00 0.08 0.08 99 1005.4
20260902165602 56 272 0.0 0.0 0.00 0.08 0.08 99 1005.8
20260902165057 56 272 0.0 0.0 0.00 0.08 0.08 99 1005.8
20260902164553 56 273 0.0 1.0 0.00 0.08 0.08 99 1005.8
20260902164051 56 270 1.0 1.0 0.12 0.08 0.08 99 1005.8
20260902163547 56 256 0.0 0.0 0.05 0.07 0.07 99 1005.8
20260902163045 56 256 0.0 0.0 0.07 0.06 0.06 99 1005.8
20260902162539 56 263 0.0 0.0 0.12 0.06 0.06 99 1006.1